sat.trackr.live / text

‹ back to catalog

STARLINK-3782

NORAD 52273 · 2022-041N

PAYLOAD ACTIVE UNKNOWN

§ Identity

Operator
Country
US
Launch date
2022-04-21
Launch site
AFETR
Launch vehicle
Mass (kg)
RCS (m²)

Purposes: comms

External: N2YO · Heavens-Above · Gunter

§ Orbital elements

Epoch: 2026-09-20T02:02:49.100064Z

Period
94.01 min
Inclination
53.1573°
Eccentricity
0.0001428
Mean motion
15.31697518 rev/d
Perigee alt
469.8 km
Apogee alt
471.7 km
Semi-major
6,848.9 km
B*
1.0770e-5
RAAN
293.7260°
Arg perigee
77.1842°
Mean anomaly
282.9319°
Rev number
24,402

§ Raw data

STARLINK-37821 52273U 22041N   26263.08529051 -.00000031  00000+0  10770-4 0  99902 52273  53.1573 293.7260 0001428  77.1842 282.9319 15.31697518244020

JSON: /api/v1/satellites/52273 · /tle

For live sub-satellite position, see the globe view (requires WebGL).

§ Visibility from observer

Set your observer location to see the next 7 days of passes ≥ 10°. The values pass through the URL so the page stays shareable.

No JS? Fill the form by hand. The geolocation button needs JavaScript.